Weather History for London, United Kingdom

Change the Weather History Date:

Thursday, January 9, 2014

  Actual Average Record
Temperature  
Mean Temperature 46 °F -  
Max Temperature 51 °F 45 °F 59 °F (1998)
Min Temperature 41 °F 35 °F 24 °F (2009)
Degree Days  
Heating Degree Days 19    
Moisture  
Dew Point 41 °F    
Average Humidity 76    
Maximum Humidity 94    
Minimum Humidity 53    
Precipitation  
Precipitation 0.00 in - - ()
Sea Level Pressure  
Sea Level Pressure 29.71 in    
Wind  
Wind Speed 15 mph ()    
Max Wind Speed 25 mph    
Max Gust Speed 37 mph    
Visibility 7.8 miles    
Events Rain    
Averages and records for this station are not official NWS values.
T = Trace of Precipitation, MM = Missing Value Source: Averaged Metar Reports

Daily Weather History Graph

Daily Weather History Graph

Search for Another Location

Airport:

Trip Planner

Search our weather history database for the weather conditions in past years. The results will help you decide how hot, cold, wet, or windy it might be!

Date:

Astronomy

Jan. 09, 2014 Rise Set
Actual Time 8:04 AM GMT 4:13 PM GMT
Civil Twilight 7:25 AM GMT 4:52 PM GMT
Nautical Twilight 6:43 AM GMT 5:34 PM GMT
Astronomical Twilight 6:03 AM GMT 6:15 PM GMT
Moon 11:49 AM GMT (1/9) 1:37 AM GMT (1/9)
Length of Visible Light 9h 26m
Length of Day
8h 08m
Waxing Gibbous, 64% of the Moon is Illuminated
Jan 9
Waxing Gibbous
Jan 16
Full
Jan 24
Last Quarter
Jan 30
New
Feb 6
First Quarter

Hourly Weather History & Observations

Time (GMT) Temp. Windchill Dew Point Humidity Pressure Visibility Wind Dir Wind Speed Gust Speed Precip Events Conditions
12:00 AM 53 °F - 51 °F 90% 29.70 in 3 mi SSW 12.7 mph - - Rain Light Drizzle
12:20 AM 53.6 °F - 51.8 °F 94% 29.68 in 6.2 mi SSW 11.5 mph - N/A   Mostly Cloudy
12:50 AM 53.6 °F - 50.0 °F 88% 29.65 in 6.2 mi SSW 16.1 mph - N/A   Light Drizzle
1:00 AM 53 °F - 51 °F 88% 29.66 in 7 mi SSW 18.4 mph - - Rain Rain
1:20 AM 53.6 °F - 50.0 °F 88% 29.62 in 6.2 mi SSW 17.3 mph - N/A   Mostly Cloudy
1:50 AM 53.6 °F - 50.0 °F 88% 29.62 in 6.2 mi SSW 13.8 mph - N/A   Drizzle
2:00 AM 53 °F - 51 °F 88% 29.62 in 12 mi South 13.8 mph - - Rain Light Rain Showers
2:20 AM 53.6 °F - 50.0 °F 88% 29.59 in 6.2 mi SSW 16.1 mph - N/A Rain Light Rain
2:50 AM 51.8 °F - 50.0 °F 94% 29.59 in 6.2 mi SSW 15.0 mph 28.8 mph N/A   Scattered Clouds
3:00 AM 53 °F - 50 °F 86% 29.59 in 15 mi SSW 16.1 mph - - Rain Light Rain
3:20 AM 53.6 °F - 48.2 °F 82% 29.59 in 6.2 mi SW 25.3 mph 36.8 mph N/A   Scattered Clouds
3:50 AM 51.8 °F - 46.4 °F 82% 29.56 in 6.2 mi SW 16.1 mph - N/A   Scattered Clouds
4:00 AM 52 °F - 46 °F 73% 29.57 in 16 mi SSW 21.9 mph - - Rain Rain
4:20 AM 51.8 °F - 44.6 °F 76% 29.53 in 6.2 mi SW 20.7 mph - N/A   Scattered Clouds
4:50 AM 51.8 °F - 44.6 °F 76% 29.53 in 6.2 mi SW 19.6 mph 31.1 mph N/A   Partly Cloudy
5:00 AM 51 °F - 44 °F 68% 29.55 in 19 mi SSW 21.9 mph - -   Mostly Cloudy
5:20 AM 51.8 °F - 44.6 °F 76% 29.53 in 6.2 mi SW 17.3 mph - N/A   Scattered Clouds
5:50 AM 51.8 °F - 44.6 °F 76% 29.50 in 6.2 mi SW 19.6 mph - N/A   Scattered Clouds
6:00 AM 51 °F - 45 °F 72% 29.52 in 14 mi SSW 20.7 mph - - Rain Rain
6:20 AM 51.8 °F - 44.6 °F 76% 29.53 in 6.2 mi SW 24.2 mph - N/A   Mostly Cloudy
6:50 AM 50.0 °F - 46.4 °F 87% 29.53 in 6.2 mi West 20.7 mph - N/A   Mostly Cloudy
7:00 AM 50 °F - 45 °F 75% 29.55 in 22 mi WSW 20.7 mph - - Rain Rain
7:20 AM 50.0 °F - 46.4 °F 87% 29.56 in 6.2 mi WSW 17.3 mph - N/A   Mostly Cloudy
7:50 AM 50.0 °F - 44.6 °F 82% 29.56 in 6.2 mi WSW 18.4 mph - N/A   Scattered Clouds
8:00 AM 48 °F - 43 °F 77% 29.58 in 25 mi WSW 21.9 mph - -   Scattered Clouds
8:20 AM 48.2 °F - 42.8 °F 82% 29.59 in 6.2 mi WSW 19.6 mph - N/A   Mostly Cloudy
8:50 AM 48.2 °F - 42.8 °F 82% 29.59 in 6.2 mi WSW 20.7 mph - N/A   Mostly Cloudy
9:00 AM 47 °F - 42 °F 79% 29.61 in 34 mi WSW 19.6 mph - -   Scattered Clouds
9:20 AM 48.2 °F - 42.8 °F 82% 29.62 in 6.2 mi West 23.0 mph - N/A   Mostly Cloudy
9:50 AM 48.2 °F - 41.0 °F 76% 29.65 in 6.2 mi West 20.7 mph - N/A   Mostly Cloudy
10:00 AM 47 °F - 41 °F 71% 29.66 in 22 mi West 19.6 mph - -   Partly Cloudy
10:20 AM 46.4 °F 40.1 °F 41.0 °F 81% 29.68 in 6.2 mi WNW 15.0 mph - N/A   Mostly Cloudy
10:50 AM 46.4 °F 39.8 °F 39.2 °F 76% 29.68 in 6.2 mi WNW 16.1 mph 27.6 mph N/A   Scattered Clouds
11:00 AM 46 °F - 38 °F 66% 29.70 in 31 mi WNW 12.7 mph - - Rain Rain
11:20 AM 46.4 °F 40.4 °F 37.4 °F 71% 29.71 in 6.2 mi WNW 13.8 mph - N/A   Mostly Cloudy
11:50 AM 48.2 °F - 39.2 °F 71% 29.71 in 6.2 mi WNW 16.1 mph - N/A   Scattered Clouds
12:00 PM 47 °F - 37 °F 58% 29.72 in 25 mi WNW 15.0 mph - -   Scattered Clouds
12:20 PM 48.2 °F - 37.4 °F 66% 29.71 in 6.2 mi West 15.0 mph - N/A   Partly Cloudy
12:50 PM 48.2 °F - 37.4 °F 66% 29.74 in 6.2 mi West 17.3 mph - N/A   Scattered Clouds
1:00 PM 48 °F - 37 °F 56% 29.74 in 31 mi West 16.1 mph - -   Scattered Clouds
1:20 PM 48.2 °F - 39.2 °F 71% 29.74 in 6.2 mi West 19.6 mph - N/A   Mostly Cloudy
1:50 PM 48.2 °F - 37.4 °F 66% 29.74 in 6.2 mi West 15.0 mph - N/A   Mostly Cloudy
2:00 PM 47 °F - 37 °F 59% 29.76 in 25 mi West 15.0 mph - -   Scattered Clouds
2:20 PM 48.2 °F - 37.4 °F 66% 29.77 in 6.2 mi West 18.4 mph - N/A   Scattered Clouds
2:50 PM 48.2 °F - 37.4 °F 66% 29.77 in 6.2 mi West 19.6 mph - N/A   Partly Cloudy
3:00 PM 48 °F - 36 °F 53% 29.78 in 25 mi West 17.3 mph - -  
3:20 PM 46.4 °F 40.4 °F 37.4 °F 71% 29.80 in 6.2 mi West 13.8 mph - N/A   Partly Cloudy
3:50 PM 46.4 °F 40.7 °F 37.4 °F 71% 29.80 in 6.2 mi West 12.7 mph - N/A   Partly Cloudy
4:00 PM 46 °F - 37 °F 62% 29.81 in 25 mi West 11.5 mph - -  
4:20 PM 46.4 °F 39.8 °F 35.6 °F 66% 29.80 in 6.2 mi West 16.1 mph - N/A   Partly Cloudy
4:50 PM 46.4 °F 41.1 °F 35.6 °F 66% 29.83 in - WSW 11.5 mph - N/A   Clear
5:00 PM 45 °F - 36 °F 60% 29.83 in 22 mi WSW 10.4 mph - -  
5:20 PM 44.6 °F 39.2 °F 35.6 °F 71% 29.83 in - WSW 10.4 mph - N/A   Clear
5:50 PM 44.6 °F 38.4 °F 35.6 °F 71% 29.83 in - WSW 12.7 mph - N/A   Clear
6:00 PM 43 °F - 36 °F 69% 29.85 in 22 mi WSW 12.7 mph - -  
6:20 PM 44.6 °F 38.1 °F 37.4 °F 76% 29.86 in - WSW 13.8 mph - N/A   Clear
6:50 PM 44.6 °F 38.4 °F 37.4 °F 76% 29.86 in - WSW 12.7 mph - N/A   Clear
7:00 PM 43 °F - 37 °F 72% 29.88 in 19 mi WSW 13.8 mph - -  
7:20 PM 42.8 °F 36.2 °F 37.4 °F 81% 29.89 in - WSW 12.7 mph - N/A   Clear
7:50 PM 42.8 °F 36.2 °F 37.4 °F 81% 29.89 in - WSW 12.7 mph - N/A   Clear
8:00 PM 42 °F - 36 °F 74% 29.89 in 18 mi WSW 11.5 mph - -  
8:50 PM 42.8 °F 37.0 °F 37.4 °F 81% 29.92 in - WSW 10.4 mph - N/A   Clear
9:20 PM 42.8 °F 37.0 °F 37.4 °F 81% 29.92 in - WSW 10.4 mph - N/A   Clear
9:50 PM 41.0 °F 35.2 °F 37.4 °F 87% 29.92 in - WSW 9.2 mph - N/A   Clear
10:20 PM 41.0 °F 35.2 °F 37.4 °F 87% 29.92 in - WSW 9.2 mph - N/A   Clear
11:20 PM 41.0 °F 35.8 °F 37.4 °F 87% 29.95 in - SW 8.1 mph - N/A   Clear
11:50 PM 41.0 °F 35.8 °F 37.4 °F 87% 29.95 in - WSW 8.1 mph - N/A   Clear